CZ-6A DEB

Satellite information

Favourite Embed

Satellite Type and Status

DEBRISIN ORBIT

Key statistics

Satellite CZ-6A DEB at a glance.

Uptime

1131

Days in orbit

Revolutions

≈ 14.4

Per day

Orbit

SSO

Sun Synchronous Orbit

Inclination

98.9

Latest

Satellite identification and parameters

Extended collection of information and parameters for CZ-6A DEB.

Object identification

Identified? True

Debris? True

Object name: CZ-6A DEB

International designator: 2022-151JH

Object number (NORAD): 54505

Object ID (CCSDS): 54505

Country: PEOPLES REPUBLIC OF CHINA (PRC)

Current information (Y/N): Y

RCS size: SMALL

Orbital parameters

Period: 100.104 minutes

Inclination: 98.9372 deg

SMA: 7141.595 km

Apoapsis: 813.126 km

Periapsis: 713.793 km

RAAN: 50.3978 deg

Eccentricy: 0.00695456

Argument of periapsis: 267.3849 deg

Mean anomaly: 91.9375 deg

Mean motion: 14.38500319 rev/day

Mean motion (dot): 0.00002924 rev/day2

B* drag term: 0.00094592627 1/REarth

Two-line elements (TLE)

Creation date: Dec. 16, 2025, 2:19 a.m.

Reference frame: TEME

Reference center: EARTH

Epoch: Dec. 15, 2025, 5:07 p.m. UTC

TLE line 0: 0 CZ-6A DEB

TLE line 1: 1 54505U 22151JH 25349.71334810 .00002924 00000-0 94593-3 0 9990

TLE line 2: 2 54505 98.9372 50.3978 0069546 267.3849 91.9375 14.38500319161398

Live tracking on map

Real-time ground track for satellite CZ-6A DEB.

In-orbit conjunctions

A list of the most updated potential collisions computed for object CZ-6A DEB.

Target Orbit TCA Probability of collision Miss distance Type
SL-8 DEB LEO 2025-02-01 03:09:30 0.0001187185 49.0 (m) DEBRIS
DELTA 1 DEB SSO 2024-11-14 07:46:30 0.0002702219 186.0 (m) DEBRIS

Associated space launch

Chinese satellite reported for atmospheric/ocean/environmental/spatial parameter research purposes, details TBD.

CZ-6A DEB was lifted into orbit during the mission ‘Long March 6A | Yunhai 3’, on board a Long March 6A space rocket.

The launch took place on Nov. 11, 2022, 10:52 p.m. from Launch Complex 9A.

For more information about the launch, click the button.

Launch to space Long March 6A | Yunhai 3
Long March 6A | Yunhai 3

Agency: N/A

Status: Launch Successful

Launch date: Nov. 11, 2022, 10:52 p.m. UTC

Rocket: Long March 6A

Launch pad: Launch Complex 9A

Location: Taiyuan Satellite Launch Center, People's Republic of China

...

Latest news about this satellite

There are no fresh news available about this satellite. Check back as we update our databases every day.


Newsletter sign-up

Weekly statistics, charts and insights to help you stay on top of the space industry.